Flag for Brazil Weather past 2 weeks in Niterói, Rio de Janeiro, Brazil

Now
64 °F

More clouds than sun.


Feels Like: 64 °F
Forecast: 63 / 66 °F
Wind: 10 mph from Northwest

Location: Rio De Janeiro Airport

Current Time: Jul 5, 2015 at 7:17:31 AM

Latest Report: Jul 5, 2015 at 7:00 AM


Visibility: 5 mi

Pressure: 30.18 "Hg

Humidity: 83%

Dew point: 59 °F

Location of NiteróiLocation

Historic Weather in Niterói — Graph

°F

Niterói temperature yesterday

Maximum temperature yesterday: 81 °F (at 11:00 AM)
Minimum temperature yesterday: 64 °F (at 10:00 PM)
Average temperature yesterday: 74 °F

Past Weeks' High & Low Weather Summary

 TemperatureHumidityPressure
High82 °F (Jun 23, 2:00 PM)100% (Jun 23, 6:00 AM)30.48 "Hg (Jun 23, 6:00 AM)
Low63 °F (Jun 20, 6:00 AM)55% (Jul 1, 10:00 AM)29.83 "Hg (Jul 4, 2:00 AM)
Average71 °F79%30.18 "Hg
* Reported Jun 20 6:00 AM — Jul 5 6:00 AM, Niterói, Weather by CustomWeather, © 2015

Note: Actual official high and low records may vary slightly from our data, if they occured in-between our weather recording intervals... More about our weather records

Advertising

Niterói weather history for previous 24 hours

 ConditionsComfort  
Time TempWeatherWind HumidityBarometerVisibility
6:00 AM
Sun, Jul 5
64 °FPartly sunny.3 mph83%30.15 "Hg5 mi
5:00 AM64 °FFog.5 mph83%30.15 "Hg3 mi
4:00 AM63 °FFog.10 mph88%30.15 "Hg3 mi
3:00 AM63 °FFog.9 mph83%30.15 "Hg3 mi
2:00 AM63 °FLight rain. Fog.1 mph83%30.15 "Hg2 mi
1:00 AM63 °FLight rain. Fog.13 mph83%30.15 "Hg2 mi
12:00 AM64 °FPassing clouds.10 mph73%30.15 "Hg4 mi
11:00 PM
Sat, Jul 4
64 °FLight rain. Fog.6 mph83%30.12 "Hg2 mi
10:00 PM64 °FLight rain. Fog.8 mph88%30.12 "Hg2 mi
9:00 PM66 °FLight rain. Fog.12 mph94%N/A2 mi
8:00 PM66 °FDrizzle. Mostly cloudy.10 mph94%N/A2 mi
7:00 PM68 °FDrizzle. Mostly cloudy.15 mph94%N/A3 mi
6:00 PM72 °FScattered showers. Fog.14 mph88%29.98 "Hg3 mi
5:00 PM73 °FPassing clouds.13 mph78%29.95 "HgN/A
4:00 PM75 °FBroken clouds.12 mph78%29.92 "HgN/A
3:00 PM75 °FScattered clouds.15 mph78%29.89 "HgN/A
2:00 PM81 °FScattered clouds.17 mph58%29.86 "HgN/A
1:00 PM81 °FScattered clouds.10 mph66%29.89 "HgN/A
12:00 PM81 °FScattered clouds.9 mph62%29.89 "HgN/A
11:00 AM81 °FSunny.5 mph70%29.89 "Hg10 mi
10:00 AM79 °FScattered clouds.6 mph65%29.89 "HgN/A
9:00 AM75 °FPartly sunny.3 mph78%29.86 "HgN/A
8:00 AM75 °FSunny.6 mph78%29.86 "Hg10 mi
7:00 AM77 °FSunny.7 mph65%29.86 "Hg10 mi
Weather by CustomWeather, © 2015

See weather overviewHow to use our weather pages